Regional Weather Roundup
Issued by NWS Sterling, VA

Home | Current Version | Previous Version | Graphics & Text | Print | Product List | Glossary On
Versions: 1 2 3 4 5 6 7 8 9 10 11 12 13 14 15 16 17 18 19 20 21 22 23 24 25 26 27 28 29 30 31 32 33 34 35 36 37 38 39 40 41 42 43 44 45 46 47 48 49 50
576
ASUS41 KLWX 250111
RWRLWX

REGIONAL WEATHER ROUNDUP
NATIONAL WEATHER SERVICE BALTIMORE MD/WASHINGTON DC
900 PM EDT SAT JUN 24 2017

Note: "FAIR" indicates few or no clouds below 12,000 feet
with no significant weather and/or obstructions to visibility.
 TC=TEMPERATURE CELSIUS

 * =Non NWS site. Station does not report precipitation (e.g. rain,
    snow, etc.), thunder, or fog.

DCZ001-MDZ009-015-VAZ040>042-051-053>054-250200-
WASHINGTON METRO

CITY           SKY/WX    TMP DP  RH WIND       PRES   REMARKS
WASHINGTON NAT MOCLDY    82  57  42 SW6       29.93R
DULLES         PTCLDY    76  60  57 CALM      29.93R
ANDREWS AFB    PTCLDY    78  57  48 SW3       29.93R
FT BELVOIR     PTCLDY    73  64  72 CALM      29.93R
QUANTICO       PTCLDY    78  68  71 NW7       29.93R
COLLEGE PARK*  CLEAR     80  58  46 CALM      29.92R
LEESBURG*      CLEAR    N/A N/A N/A SW3       29.95R
MANASSAS*      CLEAR     72  66  81 S3        29.94R
GAITHERSBURG*  CLEAR     76  58  53 CALM      29.95R

$$

MDZ006>007-011-014-250200-
BALTIMORE METRO

CITY           SKY/WX    TMP DP  RH WIND       PRES   REMARKS
BWI AIRPORT    PTCLDY    76  61  59 SW3       29.91R
MD SCIENCE CTR   N/A     83  58  42 MISG      29.91R
MARTIN STATE   PTCLDY    82  61  47 SW5       29.92R
ANNAPOLIS      CLEAR     77  67  71 CALM      29.91R
FORT MEADE*    CLEAR     68  64  88 CALM      29.95R

$$

MDZ012-015-019>023-250200-
MARYLAND EASTERN SHORE

CITY           SKY/WX    TMP DP  RH WIND       PRES   REMARKS
OCEAN CITY     CLOUDY    80  72  76 S6        29.93R
SALISBURY      MOCLDY    76  68  76 S3        29.93R
BAY BRIDGE AP* CLEAR     77  66  69 CALM      29.91R
CAMBRIDGE*     CLEAR     77  66  69 CALM      29.92R
EASTON*        PTCLDY    81  61  50 W3        29.95R

$$

MDZ017>025-250200-
SOUTHERN MARYLAND

CITY           SKY/WX    TMP DP  RH WIND       PRES   REMARKS
PATUXENT RIVER MOCLDY    78  63  59 W3        29.92R
ST INIGOES     CLOUDY    79  71  76 CALM      29.92R
LEONARDTOWN*   PTCLDY    73  61  64 CALM      29.95R

$$

MDZ003>005-250200-
NORTH CENTRAL MARYLAND

CITY           SKY/WX    TMP DP  RH WIND       PRES   REMARKS
FREDERICK*     NOT AVBL
HAGERSTOWN APT CLOUDY    79  58  48 SW8       29.93R
WESTMINSTER*   CLEAR     77  63  61 S3        29.94R

$$

MDZ501>502-250200-
WESTERN MARYLAND

CITY           SKY/WX    TMP DP  RH WIND       PRES   REMARKS
OAKLAND*       NOT AVBL
CUMBERLAND*    CLEAR     77  55  47 W8        29.99R

$$

VAZ025>031-250200-
SHENANDOAH VALLEY

CITY           SKY/WX    TMP DP  RH WIND       PRES   REMARKS
WINCHESTER*    CLEAR     75  54  46 W3        29.96R
FRONT ROYAL*   CLEAR     73  54  49 W3        29.94R
LURAY*         CLEAR     75  55  50 SW3       29.96R
NEW MARKET*    CLEAR     71  55  56 W5        29.97R
STAUNTON*      CLEAR     72  57  58 CALM      30.01R
WAYNESBORO*    PTCLDY    73  58  60 W9        30.00R

$$

WVZ021-048>050-054>055-250200-
EASTERN WEST VIRGINIA PANHANDLE

CITY           SKY/WX    TMP DP  RH WIND       PRES   REMARKS
MARTINSBURG    CLEAR     73  57  57 SW5       29.93R
PETERSBURG*    PTCLDY    75  58  56 W3        29.99R

$$

VAZ036>039-050-250200-
CENTRAL FOOTHILLS

CITY           SKY/WX    TMP DP  RH WIND       PRES   REMARKS
CHARLOTTESVILL PTCLDY    78  66  66 VRB3      29.95R
CULPEPER*      PTCLDY    72  66  80 CALM      29.95R
ORANGE*        CLOUDY    72  64  78 CALM      29.94R
GORDONSVILLE*  CLOUDY    74  65  75 CALM      29.94R
WARRENTON*     PTCLDY    71  61  70 CALM      29.94R

$$

VAZ055>057-250200-
NORTH AND CENTRAL PIEDMONT

CITY           SKY/WX    TMP DP  RH WIND       PRES   REMARKS
FREDERICKSBRG* MOCLDY    76  65  68 CALM      29.93R
STAFFORD*      PTCLDY    71  67  85 CALM      29.97R

$$

NCZ024-NYZ072-PAZ021-071-VAZ022-071-250200-
OTHER REGIONAL OBSERVATIONS

CITY           SKY/WX    TMP DP  RH WIND       PRES   REMARKS
NEW YORK CITY  PTCLDY    81  56  42 VRB5      29.86R
PHILADELPHIA   PTCLDY    81  60  48 SW9       29.88R
PITTSBURGH     PTCLDY    72  56  57 W6        29.97R
ROANOKE        CLOUDY    74  59  59 NW8       30.02R
RICHMOND       CLOUDY    78  71  79 SW7       29.93R
RALEIGH        CLOUDY    73  71  93 S3        29.98R

$$

ANZ530>537-250200-
MARINE OBSERVATIONS

STATION/POSITION TIME  TEMP    WIND        PRES
                       AIR SEA DIR/SP/G
                 (UTC) (F)     (DEG/KT/KT) (MB)
THOMAS PT LIGHT  0100   81 78  250/  5/  6   N/A
BALT KEY BRIDGE  0042   81     240/  5/  6 1012.4R
COVE POINT       0042   81     300/  3/  3 1013.8R
LEWISETTA        0042   82 80   20/  2/  3 1013.2R
SOLOMONS ISLAND  0042   81 76  260/  2/  3   N/A
PINEY POINT      0042           60/  2/  2   N/A

$$





USA.gov is the U.S. government's official web portal to all federal, state and local government web resources and services.